Weather History for KMWT - January, 2013

Change the Weather History Date:

Wednesday, January 23, 2013

  Actual Average (KHOT) Record (KHOT)
Temperature  
Mean Temperature 48 °F -  
Max Temperature 69 °F 52 °F 75 °F (2002)
Min Temperature 28 °F 31 °F 11 °F (1963)
Degree Days  
Heating Degree Days 16    
Moisture  
Dew Point 37 °F    
Average Humidity 75    
Maximum Humidity 96    
Minimum Humidity 44    
Precipitation  
Precipitation 0.00 in - - ()
Sea Level Pressure  
Sea Level Pressure 30.24 in    
Wind  
Wind Speed 1 mph (West)    
Max Wind Speed 8 mph    
Max Gust Speed -    
Visibility 10 miles    
Events      
Averages and records for this station are not official NWS values.
T = Trace of Precipitation, MM = Missing Value Source: NWS Daily Summary

Daily Weather History Graph

Daily Weather History Graph

Search for Another Location

Airport or City:

Trip Planner

Search our weather history database for the weather conditions in past years. The results will help you decide how hot, cold, wet, or windy it might be!

Date:

Astronomy

Jan. 23, 2013 Rise Set
Actual Time 7:17 AM CST 5:35 PM CST
Civil Twilight 6:50 AM CST 6:02 PM CST
Nautical Twilight 6:20 AM CST 6:32 PM CST
Astronomical Twilight 5:50 AM CST 7:02 PM CST
Moon 2:48 PM CST (1/23) 4:27 AM CST (1/23)
Length of Visible Light 11h 11m
Length of Day
10h 17m
Waxing Gibbous, 89% of the Moon is Illuminated
Jan 23
Waxing Gibbous
Jan 26
Full
Feb 3
Last Quarter
Feb 10
New
Feb 17
First Quarter

Hourly Weather History & Observations

Time (CST) Temp. Dew Point Humidity Pressure Visibility Wind Dir Wind Speed Gust Speed Precip Events Conditions
12:53 AM 33.1 °F 28.0 °F 82% 30.30 in 10.0 mi Calm Calm - N/A   Scattered Clouds
1:53 AM 30.9 °F 27.0 °F 85% 30.31 in 10.0 mi Calm Calm - N/A   Clear
2:53 AM 30.0 °F 26.1 °F 85% 30.31 in 10.0 mi Calm Calm - N/A   Clear
3:53 AM 28.9 °F 26.1 °F 89% 30.30 in 10.0 mi Calm Calm - N/A   Clear
4:53 AM 28.9 °F 27.0 °F 92% 30.28 in 10.0 mi Calm Calm - N/A   Mostly Cloudy
5:53 AM 30.0 °F 27.0 °F 88% 30.29 in 10.0 mi Calm Calm - N/A   Mostly Cloudy
6:53 AM 28.9 °F 27.0 °F 92% 30.30 in 10.0 mi Calm Calm - N/A   Scattered Clouds
7:53 AM 30.9 °F 28.0 °F 89% 30.30 in 10.0 mi Calm Calm - N/A   Overcast
8:53 AM 35.1 °F 28.9 °F 78% 30.30 in 10.0 mi Calm Calm - N/A   Mostly Cloudy
9:53 AM 41.0 °F 30.0 °F 65% 30.31 in 10.0 mi Calm Calm - N/A   Overcast
10:53 AM 48.9 °F 33.1 °F 54% 30.29 in 10.0 mi Calm Calm - N/A   Mostly Cloudy
11:53 AM 54.0 °F 36.0 °F 51% 30.26 in 10.0 mi West 3.5 mph - N/A   Clear
12:53 PM 61.0 °F 39.9 °F 46% 30.20 in 10.0 mi Calm Calm - N/A   Clear
1:53 PM 66.9 °F 44.1 °F 44% 30.17 in 10.0 mi Variable 3.5 mph - N/A   Clear
2:53 PM 69.1 °F 46.0 °F 44% 30.15 in 10.0 mi West 8.1 mph - N/A   Clear
3:53 PM 66.9 °F 46.9 °F 49% 30.16 in 10.0 mi Variable 3.5 mph - N/A   Clear
4:53 PM 64.0 °F 48.0 °F 56% 30.16 in 10.0 mi Calm Calm - N/A   Clear
5:53 PM 60.1 °F 48.0 °F 64% 30.17 in 10.0 mi Calm Calm - N/A   Clear
6:53 PM 54.0 °F 46.9 °F 77% 30.17 in 10.0 mi Calm Calm - N/A   Clear
7:53 PM 50.0 °F 46.0 °F 86% 30.18 in 10.0 mi Calm Calm - N/A   Clear
8:53 PM 46.9 °F 45.0 °F 93% 30.19 in 10.0 mi Calm Calm - N/A   Clear
9:53 PM 46.0 °F 44.1 °F 93% 30.19 in 9.0 mi Calm Calm - N/A   Clear
10:53 PM 44.1 °F 42.1 °F 93% 30.20 in 8.0 mi Calm Calm - N/A   Clear
11:53 PM 42.1 °F 41.0 °F 96% 30.19 in 5.0 mi Calm Calm - N/A   Clear